Aoxiang-1 (42735 NORAD) Tracking and Keplerian Element Data

This shows tracking and keplerian element data for the satellite.

Feedback or suggestion? Click here.




ElementValue
Catalog42735
NameAoxiang-1
Epoch Orbit8441
Epoch Day312.66016497
Epoch Year2018
RAAN342.5296
Inclination51.6381
Eccentricity0.0006233
Argument of Perigee53.4708
Mean Anonmoly47.0887
Mean Motion15.7381405
Decay Rate0.00038762
L11 42735U 98067MQ 18312.66016497 .00038762 00000-0 27140-3 0 9998
L22 42735 51.6381 342.5296 0006233 53.4708 47.0887 15.73814050 84414

Live tracking and technical data element details for Aoxiang-1 (NORAD 42735). Aoxiang-1 can be tracked NOW for your location showing map with azimuth and elevation plus other details from your city location.

Track the satellite on the map from your city or location and see movement details for azimuth, elevation, latitude, longitude, range, height, and movement on the map or in text.







IsCatalogInMostPopularTable: catalog: 42735, numindb: 159
Update: records affected: 1



GetName: 42735 Aoxiang-1

Hit Count: updated at: Wed, 14 Nov 2018 15:02:17 GMT